Date String (YYYY-MM-DD hh:mm:ss) UTC,Instrument flags,Ambient pressure (hPa),Sample flow (lpm),Bypass flow (lpm),Sample temperature (°C),Ambient temperature (°C),ASC tube jacket temperature (°C),LED temperature (°C),Box temperature (°C),Sample RH (%),Span deviation,Mass concentration (μg/m³),Mass concentration (μg/m³),Mass concentration (μg/m³)
DateTimeUTC,F1_M11,P_M11,Q1_M11,Q2_M11,T1_M11,T2_M11,T3_M11,T4_M11,T5_M11,U1_M11,ZSPAN_M11,X2_M11,X0_M11,X1_M11
2022-01-27 00:00:00,,0824.7,4.99,0.00,24.4,23.6,00.0,33.5,26.1,08.2,0000.0,0005.92,0009.59,0005.68
2022-01-27 00:01:00,,0824.8,5.01,0.00,24.4,23.6,00.0,33.5,26.1,08.3,0000.0,0005.90,0009.47,0005.66
2022-01-27 00:02:00,,0824.7,5.00,0.00,24.3,23.5,00.0,33.5,26.1,08.2,0000.0,0005.90,0009.61,0005.66
2022-01-27 00:03:00,,0824.7,4.99,0.00,24.3,23.5,00.0,33.4,26.0,08.2,0000.0,0005.92,0009.64,0005.67
2022-01-27 00:04:00,,0824.6,5.00,0.00,24.3,23.5,00.0,33.4,26.0,08.3,0000.0,0005.94,0009.77,0005.67
2022-01-27 00:05:00,,0824.6,5.00,0.00,24.3,23.5,00.0,33.4,26.0,08.4,0000.0,0005.97,0009.81,0005.67
2022-01-27 00:06:00,,0824.6,5.01,0.00,24.2,23.4,00.0,33.4,26.0,08.4,0000.0,0006.00,0009.85,0005.69
2022-01-27 00:07:00,,0824.6,5.01,0.00,24.2,23.4,00.0,33.4,25.9,08.5,0000.0,0005.99,0010.42,0005.70
2022-01-27 00:08:00,,0824.6,5.00,0.00,24.2,23.4,00.0,33.3,25.9,08.5,0000.0,0005.99,0009.93,0005.71
2022-01-27 00:09:00,,0824.7,5.00,0.00,24.2,23.4,00.0,33.3,25.9,08.5,0000.0,0006.04,0010.03,0005.72
2022-01-27 00:10:00,,0824.7,5.00,0.00,24.2,23.4,00.0,33.3,25.9,08.5,0000.0,0006.08,0010.11,0005.72
2022-01-27 00:11:00,,0824.7,5.02,0.00,24.1,23.4,00.0,33.3,25.8,08.3,0000.0,0006.08,0010.14,0005.71
2022-01-27 00:12:00,,0824.6,5.00,0.00,24.1,23.3,00.0,33.3,25.8,08.1,0000.0,0006.07,0010.15,0005.68
2022-01-27 00:13:00,,0824.6,5.00,0.00,24.1,23.3,00.0,33.2,25.7,08.3,0000.0,0006.07,0010.00,0005.68
2022-01-27 00:14:00,,0824.6,4.99,0.00,24.1,23.3,00.0,33.2,25.7,08.0,0000.0,0006.03,0010.01,0005.64
2022-01-27 00:15:00,,0824.7,5.01,0.00,24.0,23.2,00.0,33.2,25.7,08.0,0000.0,0006.00,0010.03,0005.62
2022-01-27 00:16:00,,0824.8,5.01,0.00,24.0,23.2,00.0,33.2,25.7,08.0,0000.0,0005.96,0010.08,0005.58
2022-01-27 00:17:00,,0824.7,4.99,0.00,24.0,23.2,00.0,33.2,25.6,08.2,0000.0,0005.94,0009.99,0005.55
2022-01-27 00:18:00,,0824.7,5.01,0.00,24.0,23.2,00.0,33.1,25.6,08.3,0000.0,0005.94,0009.21,0005.54
2022-01-27 00:19:00,,0824.8,5.00,0.00,23.9,23.1,00.0,33.1,25.6,08.5,0000.0,0005.94,0009.24,0005.54
2022-01-27 00:20:00,,0824.8,5.00,0.00,23.9,23.1,00.0,33.1,25.6,08.6,0000.0,0005.93,0009.16,0005.54
2022-01-27 00:21:00,,0824.8,5.00,0.00,23.9,23.1,00.0,33.1,25.5,08.7,0000.0,0005.89,0009.14,0005.54
2022-01-27 00:22:00,,0824.9,5.00,0.00,23.9,23.1,00.0,33.1,25.5,08.6,0000.0,0005.89,0009.21,0005.55
2022-01-27 00:23:00,,0824.9,5.01,0.00,23.9,23.0,00.0,33.0,25.5,08.7,0000.0,0005.93,0009.25,0005.58
2022-01-27 00:24:00,,0824.9,5.00,0.00,23.9,23.0,00.0,33.0,25.5,08.6,0000.0,0005.92,0009.13,0005.57
2022-01-27 00:25:00,,0824.9,5.00,0.00,23.8,23.0,00.0,33.0,25.5,08.5,0000.0,0005.92,0009.04,0005.58
2022-01-27 00:26:00,,0824.9,5.00,0.00,23.8,23.0,00.0,33.0,25.5,08.6,0000.0,0005.93,0008.94,0005.60
2022-01-27 00:27:00,,0824.9,5.00,0.00,23.8,23.0,00.0,33.0,25.5,08.7,0000.0,0005.95,0008.83,0005.64
2022-01-27 00:28:00,,0824.9,4.99,0.00,23.8,22.9,00.0,32.9,25.5,08.7,0000.0,0005.95,0008.79,0005.66
2022-01-27 00:29:00,,0824.9,4.99,0.00,23.8,22.9,00.0,32.9,25.5,08.2,0000.0,0005.92,0008.79,0005.63
2022-01-27 00:30:00,,0824.9,5.01,0.00,23.7,22.9,00.0,32.9,25.4,07.5,0000.0,0005.79,0008.65,0005.51
2022-01-27 00:31:00,,0824.9,5.01,0.00,23.7,22.9,00.0,32.9,25.4,07.3,0000.0,0005.63,0008.39,0005.38
2022-01-27 00:32:00,,0824.9,5.01,0.00,23.7,22.9,00.0,32.9,25.4,07.3,0000.0,0005.48,0008.13,0005.24
2022-01-27 00:33:00,,0824.9,5.00,0.00,23.7,22.9,00.0,32.8,25.4,07.4,0000.0,0005.32,0007.80,0005.09
2022-01-27 00:34:00,,0824.9,5.00,0.00,23.7,22.9,00.0,32.8,25.4,07.4,0000.0,0005.19,0007.71,0004.96
2022-01-27 00:35:00,,0824.9,5.00,0.00,23.7,22.9,00.0,32.8,25.3,07.5,0000.0,0005.05,0007.56,0004.81
2022-01-27 00:36:00,,0824.9,5.00,0.00,23.6,22.9,00.0,32.8,25.4,07.6,0000.0,0004.94,0007.46,0004.69
2022-01-27 00:37:00,,0824.9,5.00,0.00,23.6,22.8,00.0,32.8,25.3,07.6,0000.0,0004.81,0007.30,0004.58
2022-01-27 00:38:00,,0824.9,5.01,0.00,23.6,22.8,00.0,32.8,25.3,07.4,0000.0,0004.66,0007.01,0004.43
2022-01-27 00:39:00,,0824.9,5.00,0.00,23.6,22.8,00.0,32.7,25.3,06.7,0000.0,0004.47,0006.69,0004.24
2022-01-27 00:40:00,,0824.9,5.00,0.00,23.6,22.8,00.0,32.7,25.3,06.9,0000.0,0004.27,0006.25,0004.07
2022-01-27 00:41:00,,0824.9,5.00,0.00,23.6,22.8,00.0,32.7,25.3,06.9,0000.0,0004.19,0006.18,0003.99
2022-01-27 00:42:00,,0824.9,5.01,0.00,23.6,22.8,00.0,32.7,25.3,06.8,0000.0,0004.13,0007.39,0003.93
2022-01-27 00:43:00,,0825.0,5.00,0.00,23.6,22.8,00.0,32.7,25.3,07.0,0000.0,0004.09,0007.30,0003.90
2022-01-27 00:44:00,,0825.0,5.00,0.00,23.6,22.9,00.0,32.7,25.3,06.9,0000.0,0004.05,0007.25,0003.86
2022-01-27 00:45:00,,0825.1,5.00,0.00,23.6,22.9,00.0,32.7,25.3,06.6,0000.0,0003.99,0007.07,0003.80
2022-01-27 00:46:00,,0825.1,5.00,0.00,23.6,22.9,00.0,32.6,25.3,07.0,0000.0,0003.94,0006.95,0003.77
2022-01-27 00:47:00,,0825.1,5.00,0.00,23.6,22.9,00.0,32.6,25.3,07.3,0000.0,0003.92,0006.92,0003.76
2022-01-27 00:48:00,,0825.1,5.00,0.00,23.6,22.9,00.0,32.6,25.3,07.2,0000.0,0003.90,0007.44,0003.73
2022-01-27 00:49:00,,0825.1,5.00,0.00,23.6,22.9,00.0,32.6,25.3,07.2,0000.0,0003.89,0007.43,0003.71
2022-01-27 00:50:00,,0825.2,5.01,0.00,23.6,22.9,00.0,32.6,25.3,07.3,0000.0,0003.91,0007.50,0003.74
2022-01-27 00:51:00,,0825.2,5.00,0.00,23.6,22.9,00.0,32.6,25.3,07.2,0000.0,0003.92,0008.36,0003.73
2022-01-27 00:52:00,,0825.2,4.99,0.00,23.6,22.9,00.0,32.6,25.3,07.1,0000.0,0003.91,0009.10,0003.73
2022-01-27 00:53:00,,0825.2,5.00,0.00,23.6,22.9,00.0,32.6,25.3,07.1,0000.0,0003.91,0008.52,0003.72
2022-01-27 00:54:00,,0825.2,5.00,0.00,23.6,22.8,00.0,32.6,25.3,07.4,0000.0,0003.92,0008.58,0003.73
2022-01-27 00:55:00,,0825.2,5.00,0.00,23.6,22.8,00.0,32.6,25.3,07.6,0000.0,0003.96,0008.60,0003.78
2022-01-27 00:56:00,,0825.2,4.99,0.00,23.6,22.8,00.0,32.6,25.3,07.7,0000.0,0004.02,0008.66,0003.83
2022-01-27 00:57:00,,0825.2,5.01,0.00,23.6,22.9,00.0,32.6,25.3,07.6,0000.0,0004.08,0008.73,0003.89
2022-01-27 00:58:00,,0825.2,5.00,0.00,23.6,22.9,00.0,32.6,25.3,07.4,0000.0,0004.09,0008.84,0003.89
2022-01-27 00:59:00,,0825.2,5.01,0.00,23.6,22.9,00.0,32.6,25.3,07.3,0000.0,0004.11,0008.69,0003.91
